Temperature
14 14 14 14 14 14 14 14 14 14 14 14 13 14 14 14 14 14 14 14 14 14 15 15 15 15 15 15 15 15 16 16 16 16 16 16 16 16
14 14 14 14 14 14 14 14 14 14 13 13 13 13 13 13 13 13 14 14 14 14 14 14 14 15 15 15 15 15 15 16 16 16 16 16 16 16
13 13 13 13 13 13 13 13 13 13 13 13 13 13 13 13 13 13 13 13 13 14 14 14 14 14 14 15 15 15 15 15 15 15 16 16 16 16
13 13 13 13 13 13 13 13 13 13 13 12 12 12 12 13 13 13 13 13 13 13 13 13 13 14 14 14 14 14 15 15 15 15 15 15 15 16
13 13 13 13 13 13 13 13 13 12 12 12 12 12 12 12 12 12 12 13 13 13 13 13 13 13 13 14 14 14 14 14 14 14 15 15 15 15
13 13 13 13 13 13 12 12 12 12 12 12 12 12 12 12 12 12 12 12 12 12 12 12 13 13 13 13 13 13 13 13 14 14 14 14 14 15
13 13 13 13 12 12 12 12 12 12 11 11 11 11 11 11 11 11 11 11 12 12 12 12 12 12 12 12 12 13 13 13 13 13 14 14 14 14
12 12 12 12 12 12 12 11 11 11 11 11 10 10 10 10 10 10 10 10 10 11 11 11 11 11 11 11 12 12 12 12 12 13 13 13 13 13
12 12 11 12 12 12 11 11 11 11 10 10 10 10 10 10 10 10 10 10 10 10 10 10 10 10 11 11 11 11 11 11 11 12 12 12 12 13
12 12 11 11 11 11 11 11 11 10 10 10 10 10 10 10 9 9 9 9 9 10 9 9 9 9 10 10 10 10 10 11 11 11 11 11 12 12
11 11 11 11 11 11 11 11 11 10 10 10 10 10 10 9 9 9 9 9 9 9 9 8 8 9 9 9 10 10 9 10 10 10 10 10 11 11
11 11 11 11 10 10 10 10 10 10 10 10 10 10 9 9 9 8 8 8 8 8 8 8 8 7 7 8 8 8 9 9 9 9 9 9 10 10
11 11 10 10 10 10 10 10 10 9 9 9 9 9 9 9 8 8 8 8 7 7 7 7 7 7 6 6 7 7 8 8 8 8 9 9 9 9
11 10 10 10 10 10 10 10 9 9 9 9 9 8 8 8 8 8 8 7 7 7 7 6 6 6 6 6 6 6 7 7 7 7 7 8 8 8
10 10 10 10 10 10 9 9 9 9 8 8 8 8 8 7 7 7 7 7 7 7 6 6 6 5 5 5 5 5 6 6 6 6 6 7 7 7
10 10 10 9 9 9 9 9 8 8 8 8 7 7 7 7 7 7 6 6 6 6 6 6 5 5 5 5 5 5 5 5 5 5 6 6 6 7
9 9 9 9 9 9 8 8 8 7 7 7 7 7 7 7 6 6 6 6 5 5 5 5 5 5 5 4 4 4 4 5 5 5 5 5 6 6
9 9 9 8 8 8 8 8 7 7 7 7 7 6 6 6 6 5 5 5 5 5 4 4 4 4 4 4 4 4 4 4 4 4 4 4 5 5
8 8 8 8 8 8 7 7 7 7 6 6 6 6 6 5 5 5 5 4 4 4 4 4 4 3 3 3 3 4 3 3 3 4 4 4 4 5
8 8 8 8 7 7 7 7 7 6 6 6 6 5 5 5 5 4 4 4 4 4 4 3 3 3 3 3 3 3 3 3 3 3 3 4 4 4
8 8 8 7 7 7 6 6 6 6 6 5 5 5 5 4 4 4 4 4 3 3 3 3 3 3 2 2 2 2 3 3 2 3 3 3 3 3
8 7 7 7 7 6 6 6 6 5 5 5 5 4 4 4 4 3 3 3 3 3 3 3 2 2 2 2 2 2 2 2 2 2 2 2 3 3
8 7 7 7 6 6 6 6 5 5 5 4 4 4 4 3 3 3 3 2 2 2 2 2 2 2 1 1 1 1 1 2 2 2 2 3 3 3
Wind_Speed
6 6 5 4 5 5 4 4 3 3 3 4 4 4 7 7 9 9 8 7 7 7 7 7 6 6 5 5 4 4 4 4 5 5 5 6 7 10
3 5 5 4 4 5 4 4 4 2 2 3 3 4 7 9 11 11 10 9 8 8 7 7 6 6 6 6 6 6 6 6 6 7 7 6 7 8
5 5 5 5 4 5 4 4 4 4 3 3 3 4 5 6 7 10 10 9 9 9 9 8 7 7 7 8 8 8 8 8 8 8 8 8 8 8
5 5 5 5 5 5 4 5 4 4 3 4 4 4 5 5 5 6 8 11 11 10 10 10 9 10 10 10 10 10 10 10 10 10 10 10 10 10
5 5 6 6 6 5 5 5 4 5 3 3 4 3 3 4 5 6 7 7 11 11 10 11 12 13 12 12 12 12 11 11 11 12 12 12 11 11
4 5 5 6 6 6 5 6 5 5 4 4 4 4 3 4 4 4 5 5 7 9 10 12 13 13 14 14 13 12 11 11 11 11 12 12 12 11
3 3 4 6 7 5 4 4 5 4 4 4 4 4 4 4 4 4 5 5 6 4 5 7 9 8 11 13 12 13 12 12 12 12 13 13 13 13
3 3 3 4 4 4 5 4 4 3 3 3 3 4 5 5 4 5 5 5 5 4 5 7 6 6 8 10 12 14 14 14 13 13 14 14 14 14
3 4 4 4 5 4 5 5 4 5 4 2 3 4 5 5 5 5 5 6 6 6 5 6 5 6 8 13 16 16 16 15 14 14 15 15 15 15
2 2 2 3 5 5 5 5 4 4 4 3 3 5 5 5 5 5 6 6 6 5 5 6 5 6 8 12 16 16 17 16 15 15 15 16 16 16
1 2 2 3 5 6 5 5 5 6 8 9 9 10 11 12 10 4 4 4 6 5 4 4 5 7 7 6 12 15 17 17 17 17 17 17 17 16
1 2 3 3 3 4 3 4 5 6 7 8 9 10 10 10 10 4 3 4 5 5 4 4 5 6 6 5 5 12 15 16 17 18 18 18 18 12
2 1 1 2 3 4 4 3 6 7 6 6 6 6 5 4 4 5 4 3 4 5 6 5 5 6 6 7 7 7 8 10 13 15 17 17 17 13
2 2 1 4 6 7 6 8 11 9 5 5 5 5 4 4 4 5 8 8 7 8 11 8 5 6 7 10 9 7 7 8 9 8 10 14 15 17
3 4 6 7 8 7 9 11 9 5 4 4 5 5 4 4 4 4 6 8 9 12 14 12 7 6 6 9 9 9 9 8 7 7 8 8 8 8
4 5 7 9 9 9 9 7 5 5 4 4 4 5 4 4 4 4 4 5 5 6 8 12 10 7 8 9 9 11 9 8 7 8 9 8 8 9
2 3 4 4 4 4 4 4 4 3 4 3 4 5 5 5 5 4 4 5 6 7 7 5 8 10 8 9 10 10 10 9 8 9 9 10 9 8
2 3 4 5 5 5 5 4 4 4 4 4 4 5 5 5 6 5 5 5 6 7 7 7 6 7 8 8 9 10 9 9 9 9 9 10 12 9
3 5 6 6 5 5 5 5 5 5 4 4 5 5 5 5 6 6 6 6 7 8 7 6 6 7 11 14 10 8 10 11 10 10 10 10 12 11
5 6 7 6 6 5 5 5 5 5 4 5 5 6 6 6 6 7 7 7 8 8 8 7 7 7 9 12 13 12 13 11 11 12 11 10 10 12
6 7 7 6 6 5 5 5 5 5 5 5 6 6 6 6 7 7 7 10 9 8 9 9 8 11 8 8 11 12 10 14 15 13 12 11 12 11
7 7 7 7 6 6 5 5 5 5 6 6 6 6 6 6 7 9 8 8 8 9 11 9 8 8 7 11 14 15 15 13 15 20 19 17 11 11
8 7 6 6 6 5 5 6 7 6 6 6 6 6 6 6 7 7 8 9 9 10 10 10 9 8 9 10 13 14 16 16 12 11 11 15 18 20
Wind_Direction
36 33 35 27 23 24 25 34 47 26 8 14 16 16 29 35 28 19 17 15 14 15 10 4 2 358 347 338 332 320 306 297 291 289 276 250 239 233
56 48 35 28 24 22 19 24 33 46 20 3 9 13 21 20 21 14 7 11 8 360 355 351 348 341 334 326 315 305 295 288 283 281 282 276 258 245
45 60 50 35 28 22 19 27 25 32 28 353 7 14 18 12 5 2 4 1 354 356 351 343 338 332 324 315 309 299 289 282 279 276 274 274 271 255
36 44 44 42 33 22 24 24 20 23 32 359 347 2 7 1 1 359 2 359 352 348 351 350 346 335 323 314 306 298 288 281 276 274 272 270 272 267
50 45 39 39 30 21 26 24 15 15 12 4 346 351 353 357 3 356 357 353 350 350 349 346 341 335 327 317 311 304 295 286 280 276 272 270 269 268
64 61 52 50 36 19 24 18 15 10 2 2 350 343 341 340 5 355 349 344 338 343 352 342 332 328 325 321 314 307 302 294 287 281 277 270 266 264
56 80 79 70 54 35 22 11 12 7 358 359 348 344 342 350 350 343 342 329 324 335 339 331 327 321 316 312 309 306 302 298 293 287 282 275 268 264
24 49 84 71 50 15 358 360 4 3 353 345 337 336 333 337 339 340 334 334 321 319 330 318 323 313 311 311 314 313 306 299 291 285 282 277 271 267
19 21 34 51 45 21 350 339 328 323 321 312 324 317 319 325 331 329 321 314 301 296 315 306 311 311 316 323 324 318 308 300 294 289 283 276 271 267
18 30 49 49 40 29 5 356 341 329 319 317 297 296 304 305 304 300 296 304 302 306 319 307 311 312 317 317 314 316 318 311 302 300 294 283 274 269
354 39 56 69 45 34 16 344 332 324 326 326 314 308 309 310 310 316 319 320 313 307 316 314 314 314 308 304 313 317 318 316 309 304 301 295 285 277
6 51 61 73 45 30 9 335 320 312 322 325 320 315 311 307 308 291 280 300 305 304 311 320 311 321 309 297 312 319 315 309 306 301 298 296 291 283
352 5 2 9 355 336 323 291 285 297 303 303 302 302 303 307 311 311 310 288 296 295 301 310 305 308 296 301 305 303 304 305 304 300 295 292 290 282
310 316 316 323 318 308 297 286 290 299 292 290 295 297 300 302 304 316 313 307 298 293 300 302 296 298 300 300 300 299 299 296 292 291 293 294 290 286
262 277 290 298 301 293 279 281 286 279 277 278 282 285 286 287 296 305 307 305 303 302 303 302 295 293 289 290 293 296 300 294 280 285 290 285 279 282
268 282 290 287 280 277 279 277 263 254 256 261 271 276 283 289 289 287 291 296 301 297 295 296 298 295 294 288 289 292 291 288 293 288 284 280 278 273
278 284 282 282 280 279 281 279 275 277 280 278 279 285 288 290 290 289 284 291 293 296 300 297 299 297 286 287 292 290 290 288 286 289 289 286 280 270
252 258 265 267 270 275 278 282 281 279 274 276 280 283 286 289 292 293 291 291 291 291 292 294 303 308 305 289 265 282 288 288 288 287 284 283 280 274
236 249 255 257 260 263 264 267 271 271 273 275 278 280 281 285 289 291 292 291 290 289 288 290 296 301 304 303 293 276 287 292 290 287 281 276 277 277
231 242 251 254 255 258 261 265 270 277 277 277 278 280 279 280 283 285 285 287 290 292 293 290 286 285 287 293 297 294 283 279 286 287 286 280 277 277
241 242 247 250 252 254 257 258 261 265 271 274 276 277 277 281 283 283 284 286 287 289 289 288 281 282 285 294 294 291 287 280 277 280 285 286 287 286
244 244 245 246 247 249 251 254 259 262 267 268 273 277 278 280 284 287 288 287 286 285 286 287 287 290 288 289 291 294 297 297 288 283 277 269 271 274
241 242 243 245 245 247 250 254 260 263 264 267 271 275 280 283 284 286 289 287 286 287 289 292 293 288 285 284 289 292 293 297 297 294 289 275 264 266
Height
1562 1561 1561 1561 1561 1560 1560 1560 1560 1559 1559 1559 1558 1557 1556 1555 1554 1552 1551 1550 1549 1549 1548 1548 1547 1547 1547 1547 1547 1547 1547 1547 1548 1548 1549 1550 1551 1552
1563 1562 1562 1562 1561 1561 1561 1561 1560 1560 1560 1560 1559 1558 1556 1555 1554 1552 1551 1550 1549 1548 1547 1547 1546 1546 1546 1546 1546 1546 1546 1546 1546 1546 1547 1548 1548 1549
1564 1564 1563 1563 1562 1562 1561 1561 1561 1560 1560 1560 1559 1558 1556 1555 1553 1552 1550 1549 1548 1547 1546 1546 1545 1544 1544 1544 1543 1543 1543 1543 1544 1544 1544 1545 1545 1546
1565 1565 1564 1564 1563 1562 1562 1561 1561 1560 1560 1559 1558 1557 1556 1554 1553 1551 1549 1548 1547 1546 1545 1544 1543 1542 1542 1541 1541 1540 1540 1540 1540 1541 1541 1541 1541 1542
1566 1565 1564 1564 1563 1562 1562 1561 1560 1560 1559 1558 1557 1556 1555 1553 1552 1550 1549 1547 1546 1544 1543 1542 1541 1540 1539 1538 1538 1537 1537 1537 1537 1537 1537 1537 1537 1537
1566 1565 1565 1564 1563 1562 1562 1561 1560 1559 1558 1557 1556 1555 1554 1552 1551 1548 1547 1545 1544 1542 1541 1540 1538 1537 1536 1535 1534 1534 1533 1533 1533 1532 1532 1532 1532 1532
1566 1565 1565 1564 1563 1562 1561 1560 1559 1558 1557 1556 1555 1554 1552 1551 1549 1547 1545 1543 1542 1540 1538 1537 1535 1534 1533 1532 1531 1530 1530 1529 1528 1528 1527 1527 1527 1527
1565 1565 1564 1563 1562 1561 1560 1559 1559 1557 1556 1555 1553 1552 1551 1549 1548 1546 1543 1541 1538 1538 1536 1534 1532 1530 1529 1528 1527 1526 1525 1524 1523 1523 1522 1521 1521 1521
1564 1564 1563 1562 1561 1560 1559 1558 1558 1556 1556 1554 1552 1551 1549 1548 1545 1543 1541 1539 1537 1535 1533 1530 1529 1527 1526 1524 1523 1522 1520 1519 1518 1517 1516 1515 1514 1514
1563 1562 1562 1561 1560 1559 1558 1557 1556 1555 1554 1552 1551 1549 1548 1546 1544 1542 1539 1536 1534 1533 1531 1527 1524 1522 1521 1519 1518 1517 1515 1513 1512 1511 1510 1509 1508 1507
1561 1561 1560 1559 1558 1557 1556 1554 1553 1552 1551 1550 1549 1547 1545 1543 1541 1538 1536 1533 1530 1528 1527 1525 1521 1517 1515 1514 1513 1511 1509 1507 1506 1504 1503 1502 1501 1500
1559 1558 1558 1557 1556 1554 1553 1552 1550 1549 1547 1546 1545 1543 1541 1539 1538 1536 1534 1531 1527 1525 1523 1521 1517 1514 1509 1507 1506 1505 1503 1501 1499 1497 1495 1494 1493 1492
1556 1555 1555 1554 1553 1552 1550 1549 1547 1545 1544 1542 1540 1539 1537 1536 1534 1533 1531 1528 1525 1522 1520 1518 1514 1510 1508 1502 1499 1498 1497 1494 1492 1489 1488 1487 1486 1485
1553 1552 1551 1551 1550 1548 1547 1545 1544 1542 1540 1538 1536 1535 1533 1532 1530 1528 1527 1524 1522 1519 1516 1514 1510 1507 1503 1497 1493 1490 1489 1488 1485 1482 1480 1479 1477 1477
1550 1549 1548 1547 1546 1544 1543 1541 1540 1538 1536 1535 1533 1531 1530 1528 1525 1523 1521 1519 1516 1514 1512 1509 1506 1502 1499 1494 1489 1485 1482 1479 1478 1475 1473 1471 1469 1468
1546 1545 1544 1543 1542 1540 1539 1537 1536 1535 1533 1531 1529 1527 1525 1523 1521 1519 1516 1513 1510 1507 1506 1503 1501 1497 1493 1489 1485 1479 1477 1473 1470 1468 1465 1462 1461 1460
1541 1540 1539 1538 1537 1536 1534 1533 1532 1531 1529 1527 1525 1522 1520 1518 1516 1514 1511 1508 1505 1501 1498 1496 1494 1491 1487 1483 1478 1474 1470 1467 1464 1461 1458 1454 1452 1451
1537 1535 1534 1533 1532 1531 1530 1528 1527 1526 1524 1522 1520 1518 1515 1513 1510 1508 1506 1503 1499 1496 1493 1490 1486 1481 1477 1474 1474 1468 1464 1460 1456 1453 1450 1446 1442 1441
1532 1530 1529 1528 1527 1526 1525 1524 1522 1521 1519 1517 1515 1513 1510 1508 1505 1502 1500 1497 1493 1490 1487 1484 1481 1477 1471 1464 1461 1462 1458 1452 1448 1444 1442 1439 1434 1432
1526 1525 1524 1523 1522 1521 1520 1518 1517 1515 1514 1512 1509 1507 1505 1502 1499 1497 1494 1491 1487 1484 1480 1477 1475 1472 1467 1461 1453 1449 1450 1446 1441 1436 1432 1429 1426 1423
1520 1519 1518 1517 1516 1515 1514 1513 1511 1509 1508 1506 1503 1501 1499 1496 1493 1490 1487 1484 1481 1477 1473 1470 1467 1465 1460 1454 1447 1440 1438 1437 1434 1429 1424 1421 1416 1413
1514 1513 1512 1511 1510 1509 1508 1506 1505 1503 1501 1499 1497 1494 1492 1490 1487 1483 1480 1477 1474 1470 1466 1462 1459 1456 1452 1447 1439 1433 1427 1424 1422 1419 1417 1414 1411 1405
1507 1506 1506 1505 1504 1503 1502 1500 1498 1496 1494 1492 1490 1487 1485 1482 1479 1476 1473 1470 1466 1462 1458 1454 1450 1447 1443 1439 1433 1426 1420 1415 1411 1407 1404 1403 1402 1399